Theta_e
305 305 305 305 305 305 305 305 305 306 306 306 306 305 305 304 305 306 307 307 307 307 307 307 307 307 306 306 305 305 305 306 305 305 306 307 307 307 306 305 304 303 304 305 305 306 306 306 307 308 310 310 310 310 311 312 314 316 316 316 316 316 317 317 317 318 318 318 319 319 321 321 323 326 328 332 337 337 337 339 339 339 338 338 339 340 340 340
306 306 306 305 305 305 305 306 306 307 306 306 306 305 304 305 306 306 306 306 306 306 307 307 307 307 307 306 306 306 306 306 305 306 307 307 306 306 306 305 305 305 306 306 306 306 306 306 306 307 308 310 310 310 311 312 313 315 317 316 316 317 318 318 318 317 319 319 319 319 320 321 321 325 329 333 340 339 339 341 341 341 341 340 340 340 341 339
306 306 306 305 306 306 306 306 306 306 306 306 305 304 304 305 306 305 304 304 305 305 306 306 306 307 306 306 306 306 306 306 306 307 307 307 306 306 306 306 306 307 307 306 305 306 305 305 306 307 308 309 310 310 312 312 313 315 316 316 317 318 317 317 318 317 318 319 320 319 320 322 320 325 328 331 338 339 338 341 342 342 341 341 340 339 340 339
306 306 305 306 306 306 306 306 306 306 305 305 304 304 305 305 305 304 304 304 304 305 305 305 305 306 306 306 306 306 307 305 306 308 308 308 308 308 307 308 308 307 307 306 305 305 305 305 305 306 308 309 310 310 311 312 313 314 315 316 317 317 317 316 318 317 318 319 319 319 319 321 320 324 327 328 334 336 337 338 336 336 336 338 339 338 338 338
306 306 306 306 306 305 305 305 305 305 305 304 304 305 305 305 304 304 304 304 304 304 305 305 305 305 305 305 305 306 306 305 307 308 308 309 308 307 306 307 308 307 307 306 304 305 305 305 305 306 308 309 309 310 311 312 312 312 314 316 316 316 317 317 317 317 318 318 319 320 320 320 321 324 327 326 329 332 334 332 327 327 328 331 334 334 335 337
306 306 306 306 306 305 305 305 305 305 304 304 304 305 305 304 304 303 303 304 304 304 305 305 305 305 304 304 304 305 305 306 308 309 309 309 307 305 304 305 307 307 306 306 305 305 305 306 306 306 308 309 309 310 310 311 312 312 313 314 313 313 315 316 317 317 318 317 318 320 320 321 321 324 326 326 327 327 328 327 324 326 326 327 329 331 332 334
306 306 306 306 305 305 305 305 304 304 304 304 305 305 304 304 303 303 303 304 304 305 305 305 305 305 305 305 304 304 304 305 306 307 307 306 305 304 303 304 305 306 306 306 305 304 305 306 306 307 308 308 308 310 310 310 311 312 313 313 312 312 313 315 315 316 317 318 318 319 320 322 322 322 324 325 325 326 325 324 324 325 325 326 328 330 330 331
306 306 306 305 305 305 304 304 304 304 304 304 305 304 304 303 303 303 303 304 305 305 305 305 305 305 305 305 305 305 304 304 304 305 305 305 304 303 304 305 305 305 305 305 304 304 305 305 305 306 307 307 307 308 309 310 311 311 312 312 313 313 313 313 313 314 315 317 318 318 319 322 322 321 322 324 324 325 324 324 324 326 325 324 325 328 329 330
305 306 305 304 305 304 304 304 304 304 304 305 305 304 303 303 303 303 304 305 305 305 306 305 305 304 304 304 304 305 304 304 305 305 306 306 305 305 305 305 305 305 305 305 304 303 304 304 304 304 305 306 305 307 308 309 310 309 309 310 312 313 313 313 313 314 314 315 317 318 319 320 321 321 321 322 323 324 324 323 324 325 326 326 324 326 327 329
304 304 304 304 304 304 304 304 304 304 304 306 305 304 303 303 303 304 304 305 305 306 306 305 305 304 303 304 304 305 304 304 304 305 306 306 306 306 306 305 304 305 305 305 303 303 304 303 303 303 304 305 305 306 307 308 308 307 308 309 311 312 312 313 313 314 313 313 315 317 318 319 320 320 321 322 322 323 323 324 325 326 327 327 326 326 327 327
304 304 304 303 303 303 304 304 304 304 305 306 305 304 303 303 303 303 304 305 305 306 305 305 305 304 304 304 304 306 305 304 305 304 305 306 306 307 306 305 305 305 305 305 304 304 304 303 303 303 304 304 304 305 306 307 307 307 308 309 310 311 312 312 313 314 314 314 315 316 317 319 319 318 320 322 322 322 324 328 329 327 327 328 327 327 328 327
305 304 303 303 302 303 304 304 304 304 306 306 305 304 304 304 303 303 304 305 305 305 305 305 305 304 305 304 305 306 306 305 305 305 305 306 307 307 307 305 305 305 305 305 305 305 304 304 303 303 304 304 304 305 306 305 306 307 308 308 309 310 311 312 313 314 314 314 314 315 316 317 318 318 319 320 321 322 323 327 331 332 329 329 329 327 328 329
305 304 303 302 302 303 304 304 304 304 306 306 305 304 304 304 304 304 304 304 305 305 305 305 305 305 305 305 305 306 306 306 306 306 305 305 306 306 306 306 305 305 305 305 305 305 305 304 304 304 304 303 304 305 305 305 306 307 308 308 308 309 309 311 313 313 313 314 314 315 315 316 317 318 319 319 320 322 322 323 329 335 335 331 329 327 327 328
304 302 301 301 301 303 303 304 304 305 306 306 305 305 304 305 304 304 304 305 305 305 305 305 305 305 305 305 305 306 306 306 305 306 306 305 305 305 305 305 305 305 305 305 305 305 305 305 304 304 304 303 304 304 304 305 306 307 308 309 308 308 309 311 312 313 313 313 314 314 314 315 317 318 319 319 319 321 322 322 324 332 336 334 329 327 326 326
304 302 300 300 301 302 303 304 304 305 307 306 305 305 305 305 304 304 305 305 305 305 305 305 305 305 306 305 305 306 306 306 305 306 306 305 305 305 305 304 304 305 305 305 305 304 305 305 304 304 304 304 304 304 304 305 306 307 307 309 309 309 309 310 312 313 313 313 314 314 314 315 317 318 319 318 319 320 322 322 322 326 332 334 333 330 328 327
303 302 300 300 301 302 303 303 304 306 307 306 306 305 305 305 304 305 305 305 305 305 306 306 305 306 306 305 304 305 306 306 305 306 306 305 305 305 305 304 304 304 304 304 304 304 304 304 304 304 304 304 304 304 304 304 305 306 307 308 309 309 310 310 311 312 313 313 314 313 314 315 316 318 318 317 318 319 322 323 321 322 327 331 333 333 332 332
303 302 300 300 301 302 303 303 305 306 307 307 306 306 305 305 305 305 305 305 305 306 306 305 305 306 306 304 305 305 305 305 305 306 306 305 305 305 305 305 304 304 304 304 304 304 304 304 304 304 304 303 304 304 304 303 304 305 306 307 308 309 310 310 310 312 312 313 313 313 313 314 315 317 318 317 317 319 322 323 321 322 324 326 329 331 332 333
302 301 300 300 300 302 303 304 306 307 306 307 306 306 305 305 305 305 305 305 305 306 306 304 305 307 305 304 305 305 305 305 305 305 306 305 305 305 305 304 304 304 304 304 304 303 303 303 303 304 304 303 303 304 303 303 305 306 306 306 307 308 309 310 310 310 311 311 312 313 313 314 314 316 317 317 316 318 322 321 320 321 323 325 327 329 330 331
302 301 300 300 300 302 303 305 306 306 306 307 306 306 305 305 305 305 305 305 305 306 306 305 305 305 305 305 305 305 306 305 305 306 306 305 305 305 305 304 304 304 303 303 304 303 303 304 303 304 304 304 303 303 303 304 305 305 305 306 306 307 308 309 309 310 309 310 311 312 313 313 314 314 316 317 316 318 321 321 320 322 325 326 328 330 331 332
302 300 299 299 301 302 304 306 306 306 306 307 306 306 306 306 306 305 305 305 305 305 305 305 305 305 304 305 306 307 307 306 306 306 306 305 305 305 305 304 304 304 303 303 303 303 303 303 304 304 304 303 303 303 304 303 303 304 304 305 305 305 306 307 307 308 308 308 310 312 312 313 313 313 314 316 316 317 320 321 322 324 330 332 330 331 333 333
302 300 299 299 301 303 306 307 306 306 306 306 306 305 306 305 306 306 305 305 305 305 305 305 305 305 305 305 307 307 308 308 306 305 306 305 305 305 305 304 303 304 303 301 302 302 302 303 303 303 303 303 303 303 303 303 303 304 304 304 304 304 305 305 306 307 307 308 310 311 311 312 312 312 314 315 316 317 319 321 322 323 330 334 333 332 333 332
302 300 299 299 302 306 307 307 306 306 305 305 305 305 305 305 305 305 305 306 305 304 305 305 305 305 305 305 307 307 307 308 307 306 306 305 305 305 304 303 303 303 302 301 302 303 303 304 303 302 303 303 303 302 303 303 304 304 304 304 304 304 305 305 305 306 306 308 309 310 310 311 311 311 313 314 315 317 317 318 320 321 326 332 336 334 333 333
302 300 299 301 305 307 307 306 306 306 306 305 305 305 305 305 305 305 305 305 305 305 305 305 305 305 305 305 306 307 307 307 307 307 306 305 305 305 303 303 303 302 302 302 303 304 303 303 302 302 302 302 302 302 302 303 303 304 304 304 305 305 304 304 305 306 306 307 308 308 308 309 310 311 312 313 315 315 315 314 316 318 321 326 330 330 331 333
302 300 299 303 306 307 307 307 306 306 306 305 305 305 305 305 305 305 305 305 305 305 304 305 305 305 305 306 306 307 307 307 307 307 306 305 305 304 303 304 303 302 303 303 302 303 303 303 301 301 301 301 302 302 302 303 303 303 303 304 304 304 304 304 305 305 305 305 306 306 308 310 311 312 312 313 314 314 314 314 314 316 317 319 323 325 326 328
301 299 300 305 307 306 307 307 306 306 306 306 306 305 305 305 305 305 305 304 305 305 304 305 305 305 306 306 306 307 308 307 306 306 306 306 305 304 304 303 303 303 303 302 302 302 303 303 301 301 301 301 302 302 302 303 303 303 303 303 304 304 304 304 304 304 304 305 305 306 307 310 312 312 313 313 314 314 315 315 316 316 316 317 321 325 328 328
301 299 302 306 307 306 307 307 306 307 306 306 305 305 305 305 305 305 304 304 305 305 305 306 305 305 306 305 306 308 308 306 305 305 306 306 306 305 305 303 303 303 303 302 302 302 303 302 301 301 302 302 302 302 302 302 303 303 303 303 303 304 304 304 304 304 304 304 306 306 306 309 311 312 313 313 313 314 315 315 316 317 316 316 317 320 325 327
301 300 303 307 307 307 307 307 307 307 306 306 305 305 305 305 305 305 305 306 306 304 305 306 305 306 306 306 308 309 308 307 306 305 305 305 305 305 304 304 303 303 302 302 303 303 302 301 300 301 302 302 302 302 302 302 303 303 302 303 303 303 304 304 304 304 305 305 306 306 306 307 309 310 312 312 312 313 314 315 316 317 317 316 316 317 320 323
302 301 304 307 308 307 308 307 307 306 306 305 305 305 305 305 305 305 306 308 307 304 305 306 306 307 307 308 309 309 308 308 306 305 305 306 306 305 304 304 304 303 302 302 304 303 302 302 302 302 302 303 302 302 302 302 303 303 302 302 303 303 303 304 304 304 305 305 305 305 305 305 306 309 310 311 311 312 313 314 315 316 317 316 316 316 317 319
302 302 305 307 308 308 308 308 307 307 306 306 305 306 305 305 305 304 306 308 306 306 307 307 308 308 308 309 309 308 308 307 306 306 306 306 306 305 304 304 303 303 303 302 303 303 302 302 302 302 302 303 302 302 302 302 303 302 302 303 303 303 303 303 304 304 305 306 306 306 305 303 304 307 309 310 311 312 313 314 315 316 317 317 316 316 316 317
302 303 306 307 308 308 308 308 308 307 307 306 306 306 305 305 305 307 309 308 306 307 308 308 309 308 308 309 309 308 307 307 306 307 307 307 307 306 305 305 303 303 303 303 303 303 302 302 302 302 303 303 302 302 302 302 303 302 302 303 303 303 303 304 304 304 305 306 306 306 306 304 304 306 307 309 311 312 313 314 315 315 316 316 316 315 315 316
302 304 306 308 309 309 309 309 308 308 307 307 307 306 305 305 305 309 310 307 306 308 308 308 308 308 308 309 309 308 307 307 306 306 306 306 307 306 306 306 305 304 305 304 304 303 303 303 303 303 304 303 302 302 302 302 302 302 303 303 303 303 304 304 304 305 305 305 306 306 306 305 304 306 307 308 310 312 313 313 314 315 315 316 316 315 315 316
303 306 307 308 309 309 309 309 308 308 307 307 307 306 306 307 308 308 308 307 308 309 308 308 308 308 308 308 309 308 307 307 306 306 306 306 306 307 307 306 306 306 307 306 305 304 304 304 304 304 304 304 303 303 303 302 302 303 303 303 303 303 304 303 304 304 304 305 306 306 306 305 305 307 307 308 308 309 311 312 313 314 315 315 314 314 314 315
303 306 308 308 309 309 308 308 309 308 308 307 306 304 306 309 309 308 307 308 309 308 308 309 308 308 308 309 309 307 306 306 306 306 306 306 306 307 306 305 305 306 307 306 305 305 305 305 303 303 304 305 304 304 304 303 303 303 303 304 303 302 303 303 303 304 304 304 305 305 305 306 306 307 308 307 308 308 310 311 312 313 313 313 313 312 312 313
304 307 309 309 309 309 308 308 308 308 308 307 305 305 309 310 308 308 309 308 308 308 308 309 308 309 309 309 308 306 306 307 306 306 306 307 307 308 307 305 304 305 306 305 305 305 306 306 304 303 304 304 304 304 305 304 303 303 303 304 303 302 303 303 303 304 304 305 306 305 306 306 306 308 309 309 309 309 309 310 311 312 312 312 312 312 311 312
305 306 309 309 310 308 308 308 308 308 308 307 307 309 311 309 307 308 308 308 308 308 308 308 308 309 309 308 307 306 306 307 306 307 307 307 308 308 307 306 305 304 305 306 306 304 305 306 304 303 303 302 303 304 304 304 303 303 303 303 303 303 303 303 304 305 305 305 306 306 306 307 307 309 310 309 310 310 310 310 310 311 312 312 312 312 312 312
305 307 309 310 309 307 308 308 308 308 307 308 311 311 309 308 307 308 309 308 308 308 308 309 308 309 309 308 307 307 306 307 307 308 307 306 307 307 306 306 306 304 305 306 306 304 305 305 303 302 303 302 303 304 303 304 304 303 302 303 303 303 303 304 304 305 305 304 305 306 306 307 307 308 308 308 309 309 310 310 310 311 312 313 313 312 311 312
305 308 309 308 307 306 307 307 307 308 307 308 312 310 307 307 307 308 310 308 308 308 308 309 309 309 310 309 308 308 307 307 308 309 308 307 308 307 305 306 306 305 305 306 305 304 304 306 304 302 303 303 303 303 302 304 304 303 303 304 304 303 303 303 303 304 304 303 305 305 306 307 307 308 309 308 308 308 309 310 311 312 313 314 313 312 311 312
306 309 308 306 305 306 307 307 307 306 307 309 312 309 307 307 306 307 308 307 307 308 307 308 309 309 309 309 309 308 308 309 309 309 309 308 308 307 305 306 306 305 305 305 305 304 303 305 305 302 303 304 303 302 302 303 303 303 304 304 304 303 303 303 303 304 304 304 305 305 306 306 307 308 309 308 308 308 309 310 311 311 312 314 314 312 312 312
307 309 308 305 305 306 306 307 305 305 309 310 309 308 307 307 306 306 307 307 307 308 308 309 309 308 309 309 309 308 308 309 309 309 309 308 308 307 305 306 306 305 305 305 305 304 303 304 305 302 302 303 303 302 302 303 302 303 303 303 304 305 304 304 305 305 305 305 305 305 306 306 308 309 309 310 310 309 310 310 311 312 313 314 314 313 313 312
307 309 308 304 304 306 306 306 304 306 310 308 305 306 305 305 306 306 306 307 308 309 309 309 309 309 309 308 308 308 308 308 308 308 309 308 308 309 307 306 307 306 305 304 304 304 304 305 305 304 303 303 304 304 304 303 303 302 302 302 304 305 306 306 306 306 305 305 306 307 306 307 309 311 311 311 312 312 312 313 313 314 314 314 313 312 312 313
306 310 307 303 304 306 305 306 305 305 307 305 303 304 304 305 306 306 306 307 308 308 308 308 309 308 308 309 308 308 308 308 308 308 309 309 308 310 309 307 307 306 304 304 304 305 305 305 305 306 305 305 305 304 304 304 304 303 303 303 303 304 306 306 306 306 306 306 307 308 308 308 310 314 313 312 314 313 314 315 314 315 316 315 314 314 316 317
306 310 306 301 304 305 304 307 304 302 305 305 302 302 303 304 306 306 306 306 307 308 308 308 309 308 309 309 308 308 307 307 307 307 309 309 308 309 309 307 307 307 305 305 305 305 306 305 306 306 306 306 305 305 304 304 304 305 304 304 304 304 305 305 305 307 307 307 308 309 309 310 312 315 314 313 314 314 314 315 315 316 317 317 316 317 319 321
305 308 304 301 304 304 303 306 303 301 303 303 301 301 302 303 305 306 305 305 305 307 308 309 309 308 308 308 308 308 306 306 307 307 308 309 308 308 309 308 307 307 307 306 305 306 306 306 306 307 306 305 305 305 305 304 304 305 305 305 305 304 305 305 307 308 308 308 308 309 310 310 312 315 314 313 315 314 315 315 315 316 317 317 316 316 318 319
304 305 303 302 304 304 303 304 302 301 302 301 300 301 302 303 304 304 303 303 304 306 307 308 308 308 308 308 307 306 305 306 307 307 308 309 309 308 308 309 308 308 308 307 306 307 307 307 306 307 307 307 306 306 306 305 305 305 305 306 306 306 306 307 308 309 309 308 309 310 310 310 312 315 314 314 315 315 316 316 315 316 316 316 317 316 316 316
303 305 303 301 303 303 303 301 301 301 300 300 300 301 302 303 303 302 301 302 304 304 304 305 305 306 307 307 305 304 304 305 307 307 307 309 309 308 308 309 309 308 308 308 307 307 307 307 306 307 308 308 307 306 306 307 306 306 306 306 307 307 308 307 308 309 309 309 309 310 310 310 312 313 313 314 315 315 316 316 316 316 315 315 316 315 314 315
303 305 304 302 301 301 300 299 300 300 299 299 301 301 302 302 301 301 301 302 303 302 302 303 304 305 306 305 303 303 303 304 305 306 306 307 308 309 309 308 308 308 309 309 307 307 307 307 307 307 308 308 308 306 306 307 308 307 307 307 307 308 309 308 309 309 309 310 310 310 310 311 312 312 312 313 315 315 315 315 316 316 316 316 316 315 314 315
303 303 302 301 301 301 300 299 299 299 299 299 301 301 301 301 301 300 301 301 302 301 301 303 304 304 304 303 302 303 304 304 305 306 306 307 307 308 307 307 308 310 311 310 308 307 308 308 308 308 307 307 308 307 307 307 308 308 308 308 308 309 310 310 310 310 310 310 310 310 310 312 312 311 311 313 314 314 314 316 318 318 318 318 317 316 315 316
302 301 300 300 301 301 300 299 299 300 299 299 300 301 301 301 300 300 300 300 301 301 302 304 304 303 302 302 302 303 303 304 305 306 306 306 306 306 306 307 309 312 311 310 308 308 309 309 309 309 308 307 307 307 308 308 308 308 308 309 309 309 310 311 311 310 310 310 310 310 311 313 312 311 312 314 314 314 316 319 320 319 319 318 318 317 316 317
301 300 300 300 300 299 299 299 299 299 299 300 300 300 300 300 300 300 300 300 301 301 302 304 304 303 302 301 301 302 304 305 306 306 306 305 305 305 306 307 310 311 310 309 309 309 309 310 310 309 309 309 309 308 308 309 309 309 309 309 310 310 310 310 310 310 310 310 310 310 312 313 313 312 313 314 316 318 320 321 321 321 321 319 318 318 318 319
300 300 299 299 300 299 299 299 299 299 299 300 301 300 300 300 300 299 299 300 301 302 302 302 303 302 302 301 301 302 303 304 304 304 304 304 304 305 306 308 309 310 310 309 309 309 309 310 310 309 309 310 311 310 310 310 310 310 311 311 310 311 311 310 310 310 310 310 310 311 311 312 312 314 315 319 321 321 322 323 323 324 323 321 319 319 319 320
300 300 299 299 301 300 300 300 298 298 300 300 300 300 300 300 300 299 299 300 300 301 302 302 302 301 301 301 302 303 303 303 304 304 303 304 304 304 306 307 307 308 309 309 309 310 310 310 310 309 310 311 311 312 311 310 310 311 312 312 311 312 312 312 311 311 311 311 311 311 311 311 313 317 320 323 324 323 323 324 324 324 323 323 322 320 320 320
300 300 298 299 301 300 300 300 298 299 300 300 300 300 300 300 299 299 300 300 300 301 301 301 301 301 301 302 304 304 304 303 303 303 303 303 303 303 304 304 305 305 306 308 310 310 310 310 310 310 311 312 312 311 311 311 311 312 312 313 313 313 313 313 313 312 312 312 312 312 312 314 317 320 321 322 322 322 323 324 324 323 322 323 322 321 320 318
Wind_Speed
12 12 13 14 14 14 15 16 17 18 19 19 20 22 23 24 24 23 22 22 21 20 20 20 19 18 17 18 19 19 18 16 14 13 11 9 9 9 9 8 8 7 7 8 9 9 9 11 13 14 14 13 13 13 15 16 16 12 7 9 10 11 11 10 11 9 5 6 7 11 13 8 7 10 10 10 9 12 13 8 8 10 8 8 6 9 15 17
12 13 14 14 15 15 16 16 18 19 19 20 21 22 24 24 23 23 22 22 21 21 20 20 19 17 16 16 17 17 16 14 11 8 5 4 4 4 3 3 3 4 5 6 6 6 6 8 10 12 12 11 10 10 11 13 16 12 6 8 12 12 8 11 13 11 9 10 10 14 19 14 10 10 12 10 6 11 9 4 7 8 6 7 8 10 14 15
13 14 14 15 15 16 17 17 18 19 20 21 22 24 24 24 23 23 23 22 21 21 20 20 20 18 16 15 15 15 13 11 5 1 2 3 3 2 1 0 1 3 4 5 5 4 3 5 7 9 10 11 11 11 10 11 14 13 9 9 13 11 6 12 17 16 17 15 11 14 19 18 14 14 14 11 9 11 10 9 8 9 10 10 11 11 12 14
14 14 14 15 16 16 17 18 19 20 21 22 24 24 23 23 23 23 23 23 23 22 21 20 19 18 16 15 14 11 10 8 1 7 5 4 3 3 3 3 3 4 5 5 5 4 3 3 5 7 9 8 9 10 9 11 11 8 10 12 9 8 8 11 17 20 23 20 15 14 15 16 18 18 18 15 12 8 11 17 16 14 15 15 14 13 12 13
14 14 15 16 17 18 18 19 19 21 22 23 23 22 21 20 21 21 21 21 22 22 20 20 19 18 16 15 13 9 7 5 5 8 6 5 2 3 5 6 6 5 5 6 5 5 5 2 2 5 6 4 5 8 7 11 11 4 11 15 4 5 10 12 19 23 24 23 18 13 12 14 15 16 21 20 14 10 15 20 17 13 14 14 14 14 12 14
14 14 16 17 17 18 18 18 19 20 21 23 22 21 21 21 22 21 19 17 17 18 18 18 18 17 16 15 13 8 5 2 5 8 6 3 3 6 8 8 7 7 6 6 6 4 4 4 1 2 3 2 4 6 4 8 11 7 9 9 3 2 6 9 19 25 25 20 14 12 13 14 13 14 21 23 18 19 25 22 16 16 15 14 15 15 13 15
13 14 15 16 17 17 17 18 19 21 23 24 23 23 24 24 24 23 20 16 13 14 14 15 16 16 16 15 12 8 5 3 4 7 7 8 10 11 10 7 6 6 6 6 5 3 3 3 2 2 1 1 3 4 4 5 8 9 7 2 3 2 5 8 13 21 25 23 20 18 15 14 15 14 16 22 22 25 26 22 20 22 19 17 18 18 17 16
13 14 15 16 17 17 18 20 21 23 26 25 24 25 25 25 25 24 20 16 15 14 13 13 13 15 16 15 13 9 5 3 3 6 8 10 12 11 9 7 5 5 5 6 4 2 2 5 5 4 1 1 0 2 3 6 8 8 6 4 4 4 5 9 9 13 19 23 27 22 15 18 24 20 15 20 26 30 27 22 25 27 25 23 22 22 21 21
15 15 15 16 17 18 19 21 22 24 25 24 23 24 25 25 24 23 20 17 16 15 14 13 13 15 14 14 14 7 3 4 4 5 7 8 9 9 7 6 5 4 4 4 2 0 2 5 5 4 2 2 2 2 3 3 5 2 4 6 5 5 6 9 9 10 12 15 21 19 15 19 24 21 18 25 30 32 29 26 30 32 30 29 27 27 26 25
16 15 15 16 17 17 19 20 21 24 24 21 22 23 23 24 23 22 20 18 17 16 16 15 16 17 14 13 11 3 2 4 5 6 8 9 7 8 8 6 5 4 4 3 0 2 4 4 3 4 3 2 2 4 3 3 3 6 6 7 7 8 9 8 7 8 8 9 15 15 15 18 18 14 14 24 31 31 30 28 32 34 33 33 30 29 29 30
16 15 14 14 15 16 18 20 22 23 21 20 21 22 22 23 22 20 18 18 18 18 18 19 19 17 13 12 6 1 4 5 5 7 8 9 7 7 9 8 7 6 5 3 0 3 4 4 4 3 2 1 3 4 4 4 6 8 6 7 8 8 9 9 8 10 7 8 16 14 13 15 13 14 14 19 24 28 28 28 31 33 33 34 31 30 31 32
17 15 14 13 13 15 17 19 22 22 19 19 20 20 21 21 20 19 17 16 17 18 20 21 19 15 12 9 4 4 7 7 5 6 7 9 8 8 9 10 8 8 7 5 3 3 4 5 5 4 2 3 4 3 3 5 8 8 5 6 7 6 9 10 9 9 6 5 10 9 9 13 15 20 16 15 19 26 30 28 29 34 36 36 33 32 33 32
18 15 13 12 13 15 16 19 22 21 18 19 19 19 20 20 18 17 16 15 16 18 20 20 18 15 11 6 5 7 7 7 7 5 5 7 8 9 10 12 12 10 10 9 6 6 6 6 7 5 4 3 3 4 6 7 8 7 4 4 6 6 9 11 9 9 8 6 6 10 10 14 21 27 18 15 21 25 29 29 27 32 38 39 37 34 34 35
18 15 14 13 13 14 16 19 22 19 17 18 19 19 19 18 17 15 14 14 16 18 18 18 17 15 9 4 6 7 5 5 7 5 4 5 5 6 8 11 14 14 12 10 8 8 8 9 8 5 5 5 5 7 8 6 4 4 4 4 4 7 6 8 11 11 10 8 8 11 13 15 22 27 19 18 24 24 24 28 28 30 37 40 40 38 38 39
18 14 14 13 13 14 16 19 21 18 17 18 18 18 18 16 14 12 11 13 15 16 15 16 16 12 7 4 4 6 5 4 6 5 4 4 3 2 2 5 8 11 13 13 11 9 10 10 7 4 4 4 4 5 5 3 2 2 4 4 3 6 3 4 10 13 13 8 9 12 11 14 20 21 20 20 24 26 23 25 28 29 34 39 40 41 42 42
18 15 14 13 13 14 16 19 19 17 16 17 18 17 16 13 10 8 10 14 15 13 12 15 16 9 5 6 6 9 8 5 6 5 4 5 5 5 5 4 4 3 6 9 10 9 9 8 5 4 3 3 2 2 3 3 3 1 4 4 1 3 3 1 5 9 13 9 10 15 11 12 13 9 16 21 25 28 24 24 27 27 31 37 39 41 42 41
18 15 14 13 13 14 17 19 18 16 16 17 18 16 13 9 5 7 11 13 12 9 8 14 16 5 3 10 11 13 11 6 5 4 1 5 5 5 5 4 4 4 2 3 6 7 6 3 3 3 1 1 2 2 3 5 5 2 2 4 1 2 3 2 2 1 7 12 14 17 14 14 9 2 10 21 26 27 21 21 26 25 28 33 36 40 41 41
18 15 13 13 13 15 17 17 16 16 17 18 19 15 10 5 3 6 10 11 9 6 5 12 15 3 2 12 13 16 15 7 5 2 1 4 4 3 5 4 3 4 2 2 3 3 4 3 2 2 2 1 1 3 5 3 1 1 2 3 2 4 4 4 2 5 4 7 14 18 18 18 13 5 7 15 22 24 21 24 28 26 27 31 34 38 41 43
18 15 13 12 13 15 16 16 14 16 18 18 19 14 6 4 2 4 9 9 7 5 2 9 11 1 3 11 14 17 15 9 5 0 1 4 3 3 6 4 4 3 1 1 1 1 2 2 2 3 2 2 2 4 6 2 3 1 0 1 2 3 4 5 5 4 7 6 10 15 18 16 12 9 10 13 15 18 20 24 27 26 27 30 33 36 39 43
17 14 13 12 14 15 15 14 13 16 18 18 21 13 6 8 3 3 11 7 5 6 4 7 8 4 7 9 14 18 15 13 9 3 3 5 3 5 6 3 2 1 1 1 1 2 0 3 4 3 1 3 4 6 5 2 1 3 3 3 4 4 5 5 8 7 5 7 8 10 13 10 6 7 9 13 13 11 14 18 20 22 25 29 33 36 38 41
16 14 13 13 14 15 13 12 12 15 16 18 21 14 11 12 5 5 14 7 4 7 5 5 6 6 6 6 12 18 16 17 11 3 5 6 4 5 4 1 1 1 1 1 2 1 1 4 2 3 4 5 5 5 4 4 4 5 5 6 6 6 6 6 9 11 6 5 8 10 12 9 6 8 8 11 12 10 12 14 16 20 23 28 33 37 39 41
16 13 13 13 14 14 12 11 11 13 13 14 18 15 12 10 5 6 10 7 7 7 4 5 5 5 7 5 8 14 13 12 10 6 7 6 5 4 2 0 1 1 1 1 3 3 4 4 2 5 6 4 2 3 4 5 5 5 4 5 5 4 5 6 7 9 6 3 7 9 11 9 6 9 10 11 12 11 13 14 16 20 24 27 32 37 40 41
16 13 13 13 13 13 12 10 10 12 11 11 14 14 10 8 6 7 6 6 8 6 4 5 5 5 6 5 8 12 9 7 11 13 8 4 5 3 1 2 2 1 1 2 3 5 4 2 2 3 3 2 1 2 4 4 4 5 5 4 6 2 3 5 3 4 7 6 8 10 11 9 7 9 11 14 15 14 15 17 18 19 24 30 35 39 40 41
16 13 12 12 12 13 12 9 10 12 9 9 11 11 8 7 7 8 6 4 5 5 5 5 6 6 5 7 9 9 11 12 11 9 5 5 5 3 2 3 2 2 4 4 4 6 6 3 3 2 3 4 4 3 5 5 4 6 6 7 7 4 5 7 2 4 8 10 10 9 10 9 8 10 10 12 14 13 15 16 16 18 23 29 33 37 41 42
15 13 11 10 11 13 12 8 11 13 8 7 10 10 8 8 8 8 6 2 2 5 5 4 5 4 5 7 8 14 19 13 8 8 8 7 5 2 2 2 2 4 5 3 3 5 7 6 6 5 6 7 6 6 6 6 5 5 7 9 10 7 7 8 5 3 5 8 7 6 8 6 4 9 12 10 11 12 13 13 14 18 22 25 27 32 39 41
15 12 10 9 11 13 11 9 11 12 7 6 10 11 9 8 9 8 4 0 1 3 5 3 3 5 6 6 13 21 15 5 8 14 11 8 6 5 4 2 2 4 3 2 2 4 4 3 4 6 7 7 8 6 4 5 5 4 3 7 9 8 7 8 7 4 4 5 2 2 8 6 1 6 9 8 11 14 13 12 14 17 20 24 28 32 37 39
15 11 8 8 11 14 12 10 11 11 8 8 11 11 9 9 10 7 3 1 1 2 4 3 3 6 6 9 18 17 5 6 14 9 4 1 3 4 5 2 2 4 1 2 3 2 3 3 3 4 5 6 6 4 3 6 6 3 2 3 4 6 7 8 7 6 6 5 4 4 7 6 5 8 8 5 8 12 13 14 15 16 18 24 31 34 37 40
14 9 6 7 11 14 13 13 13 13 11 11 11 11 11 10 8 4 1 1 2 3 2 2 5 8 10 16 17 7 5 11 9 3 6 4 3 3 6 5 5 7 3 4 6 1 4 5 5 5 5 5 4 4 6 9 7 2 3 1 1 4 6 6 6 6 6 5 6 7 7 6 7 8 8 8 10 12 13 15 15 15 18 23 31 34 35 38
14 8 5 5 10 12 13 14 14 15 13 12 12 12 12 9 3 1 1 1 2 3 3 5 7 9 15 19 11 3 6 6 2 4 7 7 5 4 5 5 5 7 6 7 9 5 2 5 5 5 6 4 5 6 8 10 6 1 2 2 2 3 5 5 5 5 5 6 8 8 8 8 8 6 7 9 12 13 13 13 12 13 16 20 27 32 33 35
12 7 4 4 8 11 12 14 15 16 15 14 14 13 9 4 1 1 2 1 1 3 4 6 8 10 16 16 6 2 3 3 4 8 8 5 5 4 5 5 3 4 5 6 9 7 4 6 3 4 7 5 6 8 8 10 8 2 1 4 3 3 4 4 4 4 5 6 10 11 10 8 8 6 7 9 12 11 9 10 9 10 14 17 21 27 31 34
10 8 3 3 8 10 12 14 15 16 16 16 16 11 3 0 1 2 2 1 2 5 5 5 8 11 14 12 5 3 3 3 4 4 4 4 4 3 3 3 2 3 5 5 7 5 5 8 6 5 8 6 5 8 8 7 6 3 3 4 3 4 3 3 4 4 5 7 10 11 10 10 9 5 5 9 13 13 9 10 10 9 11 12 13 19 27 33
10 8 3 3 7 10 12 14 15 17 17 18 15 6 1 1 2 1 1 3 2 3 4 4 6 9 13 10 5 4 4 3 1 1 2 2 4 4 3 3 3 4 6 4 3 3 5 8 8 5 8 11 9 7 7 6 5 6 6 4 4 4 3 4 6 5 6 9 8 4 5 9 10 8 9 13 14 14 13 12 12 11 11 11 9 11 18 26
8 7 4 3 7 10 12 13 15 17 18 18 11 1 2 2 1 1 2 3 2 2 3 6 9 10 10 8 5 3 3 2 1 1 1 2 5 4 5 6 6 6 6 3 2 5 5 4 6 5 4 11 13 8 7 6 6 8 7 6 6 5 3 4 5 5 6 9 9 6 5 6 8 9 13 18 19 18 20 20 18 16 16 17 16 14 15 18
7 7 4 3 7 11 12 13 15 16 17 16 6 2 2 2 0 1 2 2 2 4 3 6 13 11 5 2 4 4 2 2 1 1 4 4 5 4 4 5 7 7 5 3 3 5 5 3 4 5 2 7 13 11 9 5 5 8 8 7 7 5 4 4 5 6 6 7 8 7 6 5 4 3 10 16 19 20 24 26 24 20 20 22 22 19 20 23
7 6 4 4 7 11 12 13 14 15 17 13 3 2 2 1 1 2 2 2 3 5 7 9 10 8 4 1 3 3 1 2 3 4 7 5 6 6 4 2 4 5 3 3 2 2 5 5 4 5 1 4 9 10 10 8 6 6 7 7 8 8 7 4 3 4 4 5 4 4 4 5 5 5 5 11 13 13 19 23 24 26 25 24 24 23 25 27
7 4 3 5 9 11 12 13 13 14 14 9 2 2 1 1 1 1 1 2 3 5 10 10 4 3 4 3 4 3 1 3 7 8 5 4 6 6 3 2 4 7 5 3 2 2 5 4 2 3 5 7 10 9 9 10 6 3 6 9 5 5 7 5 4 3 2 5 4 4 6 7 7 9 11 14 14 12 13 15 18 22 23 21 23 27 27 27
6 2 4 8 11 12 13 12 12 12 10 5 3 2 1 1 1 2 1 4 4 4 6 5 2 1 4 5 6 7 4 3 6 8 4 3 4 3 3 3 4 8 9 6 3 2 4 5 2 4 8 6 6 7 8 11 8 3 5 7 2 1 3 4 5 4 4 6 4 5 8 9 7 6 5 11 15 15 14 13 13 17 18 16 20 26 27 25
4 3 6 13 13 13 13 11 12 10 5 3 2 1 0 1 1 2 4 5 4 2 2 3 1 1 3 5 6 9 10 6 6 8 6 3 1 3 3 3 3 7 9 8 4 1 2 6 3 2 6 3 1 4 6 9 12 8 3 1 2 3 5 5 5 4 5 6 5 8 11 10 8 6 5 8 12 14 15 13 11 13 15 14 15 22 25 23
4 2 7 14 13 14 13 10 11 8 2 3 2 1 0 2 3 6 9 7 2 0 2 3 2 2 3 5 7 10 10 8 9 9 4 1 1 3 3 2 2 2 4 7 5 1 1 4 3 2 1 3 1 4 4 5 9 9 6 4 3 3 4 5 5 4 5 6 5 8 10 8 7 8 10 12 12 13 14 12 11 11 13 13 15 19 22 22
5 2 6 14 14 14 13 10 10 8 3 2 1 1 1 3 5 9 11 7 3 2 2 3 2 3 4 6 8 7 7 9 10 7 3 1 3 5 2 2 2 2 2 6 5 2 1 3 5 2 1 4 3 3 4 4 5 6 6 6 5 2 2 3 3 4 5 5 5 6 7 7 5 5 9 13 12 11 10 8 8 10 12 15 19 23 25 25
6 1 6 15 15 14 13 8 9 7 2 1 1 2 2 4 6 9 9 5 4 4 3 3 3 5 5 6 6 5 6 9 9 6 4 3 3 2 1 1 2 2 1 4 4 3 2 2 6 6 4 6 6 4 3 2 2 4 6 6 6 5 4 4 6 6 6 6 5 6 6 6 4 2 5 7 5 3 4 4 5 7 10 16 20 23 22 21
6 2 7 16 15 15 11 4 4 4 2 1 4 5 6 6 6 7 7 3 3 4 3 3 4 5 6 5 4 5 7 8 8 6 4 5 6 5 3 3 3 3 3 2 2 3 2 1 5 8 7 8 10 8 6 6 4 4 5 6 6 6 7 7 7 5 5 6 6 6 7 8 5 2 2 3 3 4 5 5 5 7 9 15 19 20 19 18
6 2 8 15 14 14 10 3 1 2 1 3 6 6 6 5 4 6 6 4 2 2 2 2 3 4 4 3 4 7 7 6 8 6 5 6 5 7 10 10 8 6 4 2 2 5 4 1 4 7 7 8 10 8 5 7 6 5 6 6 6 7 9 8 4 1 3 6 6 5 8 9 4 1 3 5 7 7 6 5 6 9 11 14 18 20 21 20
5 2 7 13 12 12 8 2 2 3 2 5 5 5 5 4 4 6 6 5 4 2 1 2 2 2 3 2 4 8 7 5 6 7 7 7 4 6 12 13 10 7 6 5 4 6 4 2 3 4 5 3 3 2 2 4 6 5 5 6 8 9 9 5 1 1 4 7 7 6 8 8 2 2 4 6 8 8 6 6 6 8 12 15 17 20 23 23
5 2 5 10 12 12 9 5 2 2 3 6 5 4 6 4 4 8 8 6 4 2 2 3 3 3 3 3 6 9 7 6 6 6 7 7 5 7 11 13 13 10 10 12 10 8 4 2 3 3 3 2 2 1 0 2 4 4 5 7 9 10 10 7 4 5 6 7 8 8 9 8 7 11 11 9 9 9 10 11 10 9 12 17 20 23 26 26
4 2 5 8 10 12 11 7 7 3 2 5 4 3 5 4 6 10 7 3 2 5 4 4 3 3 3 5 9 10 6 7 8 7 9 9 7 7 13 19 21 17 12 16 16 9 2 3 5 5 5 5 6 4 1 2 3 4 5 9 11 12 13 10 6 7 7 5 7 9 11 14 15 14 15 12 9 9 10 11 13 13 14 18 23 27 28 27
4 1 3 5 5 7 7 5 8 5 1 2 2 2 5 6 7 8 4 2 6 8 4 4 2 2 2 7 10 9 8 7 9 10 12 11 7 10 18 21 17 11 5 14 18 9 1 4 6 7 9 10 11 11 8 6 7 8 7 9 11 12 13 11 8 8 5 4 8 11 13 17 16 13 15 15 10 9 9 10 12 15 18 22 26 28 28 25
5 1 1 3 3 1 2 4 9 8 3 1 1 1 4 6 7 7 5 5 8 8 2 1 2 2 3 5 6 7 10 11 8 7 7 9 9 11 15 14 7 5 4 11 14 7 2 5 5 6 9 12 13 14 13 9 9 10 10 10 10 11 13 13 12 9 6 6 11 14 17 19 15 13 16 12 6 7 11 13 15 17 19 20 22 24 26 23
6 1 1 3 3 2 3 8 11 8 3 1 2 1 4 6 6 6 5 5 7 5 1 2 6 7 7 5 5 7 8 8 9 7 6 9 12 10 9 8 3 6 5 6 8 3 2 4 3 5 8 10 12 13 13 11 10 9 11 11 10 11 12 13 12 10 10 13 16 18 19 18 14 14 15 8 4 8 14 15 16 16 16 18 19 21 23 22
7 4 3 4 3 2 4 7 7 4 2 1 1 1 2 3 5 8 7 6 6 4 0 4 11 13 11 8 7 9 10 9 12 13 9 9 10 7 4 5 2 3 3 3 4 3 3 3 2 2 5 7 9 10 10 10 11 10 10 10 9 9 10 11 11 10 10 14 18 20 19 18 14 11 10 8 6 9 12 13 16 15 13 16 20 21 21 21
9 7 6 4 2 1 2 3 3 2 1 1 2 3 3 3 6 12 11 9 10 7 5 8 13 13 12 11 10 12 14 12 14 18 17 14 14 10 6 5 4 5 4 1 2 3 4 4 3 1 4 5 3 5 7 7 8 10 10 9 8 8 7 8 9 10 12 14 17 18 15 14 11 7 9 9 7 7 8 10 14 16 17 20 22 23 23 22
10 9 7 4 2 1 1 2 1 1 1 1 2 3 4 6 8 11 9 5 9 11 11 10 12 12 11 12 13 16 20 22 26 31 29 24 21 20 18 15 12 8 5 4 3 3 4 4 2 2 5 5 2 3 4 3 5 6 6 5 5 5 4 5 6 9 12 14 13 11 10 8 8 9 11 12 11 9 8 9 11 14 22 29 28 27 26 23
Wind_Direction
16 15 13 10 6 3 359 355 351 349 347 346 345 343 342 341 340 340 340 338 335 332 330 327 326 327 327 321 316 315 316 320 324 321 321 322 307 292 285 282 281 286 289 294 294 290 275 256 246 240 239 230 227 226 219 212 197 187 200 220 222 221 210 181 181 186 170 176 184 194 198 194 180 188 188 184 179 159 169 194 182 183 187 172 158 147 155 159
8 9 7 2 358 354 351 348 345 344 344 345 344 341 341 341 342 343 342 339 336 334 332 330 328 332 334 324 318 317 318 325 328 325 340 349 327 310 273 256 264 279 291 296 298 296 279 257 242 236 230 222 221 214 212 207 196 197 207 220 225 226 195 174 190 180 178 197 184 189 197 197 189 182 179 178 175 155 157 192 187 183 173 166 168 163 167 171
4 4 360 354 351 348 345 343 343 344 344 344 342 341 342 342 343 343 341 338 335 334 333 331 329 336 339 329 325 323 322 327 322 189 113 85 60 36 33 337 301 304 307 310 315 315 282 247 232 224 215 217 218 206 206 197 197 209 210 225 229 224 193 184 197 191 194 198 182 194 196 197 200 187 183 182 182 178 172 172 184 197 185 175 174 176 183 187
0 359 353 348 345 344 343 343 344 345 344 343 341 341 342 342 342 341 340 338 336 336 337 336 336 343 344 335 334 333 331 330 199 154 150 126 83 22 7 346 327 316 312 321 331 346 345 257 226 207 203 219 216 206 214 197 193 204 208 231 227 199 212 199 198 202 203 202 201 203 196 206 212 199 193 186 181 195 190 179 182 196 192 187 185 187 198 200
352 353 348 343 343 344 345 346 346 346 343 341 339 339 340 340 340 340 342 340 338 339 341 342 342 349 349 342 340 341 340 336 155 159 169 148 104 338 336 324 312 309 312 323 331 350 4 348 217 192 196 221 210 205 224 207 203 218 222 240 256 189 220 199 198 210 209 209 212 203 197 212 211 199 194 190 188 189 190 186 189 205 203 199 200 196 198 203
342 343 341 340 342 344 346 347 346 343 340 339 339 341 342 342 342 344 348 346 341 341 343 346 346 351 352 347 347 346 336 326 168 182 198 198 276 294 306 309 302 301 308 316 325 348 6 356 320 182 191 218 214 214 238 217 214 236 237 248 302 225 235 202 199 210 210 210 213 206 209 211 204 205 199 200 205 191 189 195 207 221 219 221 217 207 205 203
333 334 336 337 340 345 348 348 346 342 341 343 345 346 346 346 345 345 352 352 347 349 351 353 351 349 348 347 350 346 323 281 213 227 249 271 285 290 293 290 284 293 302 302 310 335 10 13 28 53 257 227 221 235 277 265 240 245 251 304 350 288 244 226 212 212 212 212 216 216 211 204 206 212 203 206 213 203 199 205 215 217 217 227 227 222 220 210
330 332 336 336 341 348 351 351 348 345 345 347 348 347 346 346 343 343 352 352 348 353 356 1 358 349 346 346 348 347 337 326 288 274 278 281 281 280 277 268 266 282 297 298 304 310 45 49 48 41 296 248 9 258 307 289 258 250 266 337 337 291 248 247 251 232 223 219 219 219 211 209 214 219 220 218 215 209 207 213 214 211 211 219 226 229 225 216
333 334 336 338 343 349 351 350 348 346 346 348 348 346 344 344 341 341 348 351 347 349 355 2 358 349 344 341 345 351 3 359 354 328 307 298 280 262 255 254 256 270 294 303 317 302 84 57 34 23 333 310 317 290 338 264 237 281 312 328 313 291 287 271 268 251 242 230 220 219 219 220 219 220 231 227 222 215 211 217 215 209 210 212 216 223 225 225
334 334 335 337 342 348 348 348 348 347 347 349 347 345 343 342 340 339 344 347 344 345 351 355 350 346 340 341 347 360 2 338 345 345 319 307 287 248 231 246 258 267 294 291 11 68 63 47 18 359 326 304 308 291 299 247 286 339 316 307 295 290 295 281 275 265 261 243 226 222 226 228 216 212 229 221 219 219 213 214 213 209 210 208 209 213 218 226
334 331 332 337 342 345 345 347 349 348 348 349 347 344 342 339 338 340 342 343 343 344 346 346 347 347 344 346 347 9 19 1 349 340 311 301 293 250 228 238 258 265 286 289 279 38 36 33 14 345 316 300 314 287 275 284 314 321 308 295 281 282 284 267 270 269 266 246 231 225 236 239 219 218 223 206 209 215 207 205 207 208 208 205 206 211 214 219
340 334 334 341 342 341 344 346 348 349 349 349 348 344 340 336 337 340 342 343 344 343 342 343 348 353 354 357 23 60 51 56 36 353 312 299 290 263 239 236 251 262 273 273 279 340 350 5 358 326 298 313 311 276 285 322 317 309 303 286 271 276 269 248 252 256 241 249 231 209 237 242 226 230 218 190 204 211 206 205 204 204 205 204 205 211 216 218
346 345 346 348 343 340 343 345 348 349 349 350 349 345 338 334 336 340 345 348 346 343 341 345 353 360 2 18 67 66 61 60 41 8 325 306 289 274 260 252 251 252 258 263 275 308 312 331 340 318 300 301 289 279 306 324 312 298 274 259 264 267 255 227 226 249 233 242 215 182 222 231 225 232 212 184 203 205 206 210 205 202 201 203 206 211 218 221
351 352 353 350 343 341 343 345 348 349 350 351 351 345 335 332 337 344 350 351 349 346 345 353 1 4 12 52 66 52 47 40 28 12 341 326 308 283 272 269 260 249 246 254 273 288 295 315 322 308 288 267 269 285 302 315 298 296 273 244 237 246 245 185 196 230 229 226 206 197 229 229 226 230 206 187 201 201 205 209 207 206 203 204 206 210 216 220
353 351 351 350 343 342 344 346 348 349 352 352 352 345 333 334 344 349 357 357 353 352 356 2 4 7 20 46 38 15 4 9 21 15 357 6 15 8 341 306 282 259 244 245 263 278 289 305 302 281 277 259 263 275 288 299 275 288 262 238 209 232 244 158 193 216 220 219 203 209 237 235 231 226 199 192 203 205 209 210 208 207 207 209 208 209 213 216
355 351 351 348 343 345 345 346 348 350 352 351 353 346 334 338 352 2 8 2 356 360 5 1 3 21 32 9 1 353 345 336 5 14 6 15 19 27 33 25 11 315 255 251 261 273 283 294 278 251 261 247 233 243 262 271 248 221 247 250 258 238 249 223 205 208 216 220 211 216 235 242 237 209 188 197 205 206 210 215 214 208 207 211 212 212 212 214
357 354 353 347 346 346 345 348 349 349 352 351 353 350 340 343 8 27 16 4 360 2 9 2 1 25 54 13 2 352 348 320 342 13 29 16 10 12 22 25 34 37 28 265 260 264 263 252 229 227 214 225 227 216 237 252 243 209 235 254 273 253 275 250 193 139 215 216 220 226 236 244 244 152 184 203 204 205 207 213 218 214 209 212 215 216 216 217
358 356 354 350 349 346 347 350 349 349 351 350 355 357 354 359 32 28 12 6 5 3 19 10 4 41 66 7 358 350 349 319 317 19 45 12 15 1 1 357 359 15 44 220 238 232 222 202 198 219 187 199 199 210 236 246 228 143 216 244 243 228 245 247 240 23 3 231 226 229 236 242 243 239 231 221 208 206 207 210 217 219 214 214 216 217 219 221
358 358 356 354 350 347 349 351 350 351 348 351 0 3 10 24 29 20 8 7 16 19 15 354 358 53 283 337 353 355 357 347 326 296 26 4 5 339 344 339 329 352 33 229 197 137 200 192 202 227 218 192 185 226 241 198 95 73 207 251 280 239 234 262 277 334 7 321 253 236 241 245 242 236 248 257 235 215 215 212 212 216 216 215 217 218 219 220
359 359 359 356 350 349 352 353 355 352 349 354 1 8 32 19 7 350 354 360 24 4 325 323 325 289 287 322 358 1 0 357 342 290 313 334 329 318 320 338 335 341 36 319 339 48 45 234 233 231 163 158 196 217 223 201 221 288 281 270 276 275 265 276 284 288 346 328 274 256 265 272 276 258 252 265 261 236 224 214 206 208 210 211 213 219 220 220
359 0 1 356 350 352 356 357 358 357 355 356 1 24 52 27 24 334 340 342 348 336 322 326 305 292 315 337 4 4 357 352 348 349 333 318 309 308 299 9 343 312 28 304 285 352 267 260 235 166 185 202 207 193 187 220 254 268 267 273 266 260 267 273 280 285 311 309 275 279 285 286 285 277 271 265 262 249 233 219 207 202 205 210 210 215 220 222
359 360 1 357 352 357 360 360 1 1 359 354 7 41 62 41 33 339 335 316 305 313 316 331 307 310 339 337 358 1 354 348 341 336 336 324 324 316 282 137 264 288 20 287 285 277 267 276 220 190 210 210 187 164 186 226 241 248 248 261 259 247 266 263 260 277 297 280 272 291 292 289 287 276 273 265 261 259 249 237 224 207 201 206 208 212 217 220
359 359 1 359 357 2 2 0 2 1 356 355 16 40 47 32 10 344 334 300 295 303 312 318 309 319 336 331 340 347 351 343 319 317 323 329 339 333 262 246 241 296 284 234 263 271 285 307 176 191 192 166 199 171 183 219 226 233 234 245 251 228 251 251 230 291 304 284 277 298 296 287 283 273 266 260 260 267 268 259 246 228 211 208 210 214 216 218
359 0 2 3 5 4 3 3 1 359 355 358 15 26 17 2 350 341 334 291 282 304 312 310 309 308 325 333 335 340 332 313 300 309 325 319 318 306 260 257 217 248 256 236 244 254 263 244 166 146 177 209 247 202 192 225 228 224 227 239 249 227 232 250 271 319 302 283 271 280 288 279 261 255 256 254 254 258 265 263 251 240 228 220 216 215 217 219
359 1 4 12 12 6 5 7 359 359 2 1 5 5 354 341 337 339 338 292 256 309 323 325 321 314 328 336 338 333 322 306 299 318 313 296 284 271 278 256 215 250 250 232 247 253 260 245 200 209 228 222 232 222 212 228 243 237 222 231 242 236 234 242 248 270 277 269 252 235 257 265 235 242 246 244 246 245 247 252 246 239 233 227 222 217 216 218
359 0 5 17 17 10 11 9 359 2 7 358 357 354 343 332 327 327 332 328 212 335 343 339 340 334 331 340 337 329 317 291 328 326 304 269 255 261 269 218 207 262 242 195 264 257 259 247 199 226 232 213 222 237 225 216 246 262 219 220 231 230 233 235 231 223 234 256 255 204 245 257 240 245 244 234 243 245 239 241 243 238 230 226 225 222 218 217
357 360 6 17 17 15 17 14 5 7 6 354 355 350 337 327 323 315 302 41 35 343 335 321 335 335 329 337 336 331 309 308 330 351 54 288 259 232 242 225 218 260 195 165 272 232 190 212 202 221 225 214 226 240 198 194 231 259 128 170 209 216 231 235 230 226 239 269 288 260 250 263 266 253 250 244 252 254 243 240 241 236 229 227 228 226 222 220
355 358 6 17 17 16 17 15 9 8 4 354 351 344 331 323 319 303 236 84 356 335 333 314 325 327 328 335 336 322 279 306 320 57 60 350 293 213 225 234 240 254 211 202 262 248 156 213 216 206 223 229 219 208 191 197 223 234 102 99 227 233 245 243 239 238 246 267 262 236 225 251 259 241 246 257 257 257 247 241 241 237 232 229 231 230 227 226
353 358 6 16 17 16 14 13 11 7 1 353 346 335 328 324 306 219 115 65 341 352 352 333 332 327 330 337 339 300 291 297 242 290 320 313 288 253 239 245 243 251 229 217 251 262 208 231 216 198 229 234 199 195 187 197 216 149 124 278 268 231 248 240 235 244 244 249 251 227 200 231 259 235 230 244 247 248 244 243 243 241 242 236 235 234 232 232
356 360 9 20 16 14 13 11 8 4 359 353 343 333 328 326 203 133 33 17 338 347 333 331 336 329 335 344 345 325 313 265 262 293 306 309 288 268 262 265 247 248 245 228 247 259 253 252 235 205 230 224 199 206 199 201 206 152 225 273 267 235 246 237 229 235 236 238 248 238 203 216 256 236 214 230 241 248 247 251 258 251 250 248 240 238 237 237
0 4 14 25 15 11 10 8 4 1 357 350 344 337 332 100 78 81 46 338 290 329 333 339 342 333 339 348 331 316 322 280 285 296 303 309 282 279 294 276 246 258 260 239 244 259 255 247 240 216 217 206 205 223 222 211 198 189 241 261 268 250 228 222 219 212 230 240 246 242 213 215 243 232 220 241 246 254 258 256 262 260 254 255 246 241 240 240
3 7 14 16 13 9 5 3 0 359 354 348 346 340 165 123 11 102 312 319 310 339 344 329 336 335 329 328 304 294 311 308 320 283 291 301 281 276 262 263 273 274 273 254 248 282 258 239 232 224 211 205 213 228 228 221 207 219 232 227 239 235 198 210 216 204 224 242 248 241 195 219 245 247 251 262 258 256 260 256 255 260 263 268 265 254 248 242
0 5 8 360 7 6 1 359 358 357 352 348 347 16 125 52 23 215 286 327 349 349 339 309 316 325 317 314 318 308 291 286 315 311 291 272 281 268 231 235 229 240 270 277 308 300 276 238 210 219 220 207 212 224 229 218 207 219 218 203 215 215 195 213 218 217 227 240 249 241 222 243 260 242 229 244 253 250 253 257 257 257 259 265 269 270 270 260
357 360 360 357 3 0 358 358 356 354 350 350 353 135 68 37 217 298 299 299 301 313 329 320 319 322 316 302 320 326 300 258 238 304 307 290 288 289 261 236 212 221 259 264 284 282 272 281 190 191 178 190 207 225 235 221 199 215 212 206 218 217 213 218 215 219 228 248 248 221 217 242 259 217 195 221 242 241 243 250 252 253 256 262 267 267 270 272
354 356 1 6 360 353 354 357 357 354 350 350 11 97 54 61 270 311 299 294 305 313 317 319 317 313 320 286 286 325 344 281 306 308 299 286 284 293 290 258 204 196 209 242 251 225 253 275 206 202 206 173 210 229 224 220 216 209 198 203 220 219 216 229 243 235 240 274 263 198 218 250 265 295 251 240 254 248 242 244 245 248 249 252 260 261 263 267
353 2 21 8 353 350 354 355 356 355 349 351 51 69 48 205 262 238 249 322 319 315 317 321 322 302 324 330 308 327 204 254 307 316 303 266 275 276 251 253 207 186 185 216 232 213 253 263 171 236 257 211 226 233 207 212 217 171 192 209 216 218 222 238 262 264 268 279 267 226 249 262 265 276 263 254 261 260 255 250 244 248 246 242 248 252 254 257
1 50 41 10 355 351 351 352 356 356 356 13 86 74 311 241 216 202 266 331 311 310 322 326 347 312 326 328 316 328 329 275 304 322 329 298 278 235 218 258 199 193 206 215 238 248 259 275 262 263 270 241 227 227 205 214 215 165 192 209 166 60 239 244 257 257 249 257 254 233 250 256 251 259 252 242 246 249 254 252 249 251 247 239 239 245 250 251
15 112 35 11 360 352 348 352 358 352 1 48 59 35 326 273 245 245 295 321 310 307 319 299 280 229 321 322 309 325 331 319 322 326 321 315 276 181 228 265 191 204 218 213 235 238 231 282 296 239 279 317 126 203 211 217 220 227 263 248 188 212 206 197 221 240 236 244 246 239 248 251 242 252 274 255 243 246 251 248 246 250 249 245 239 242 249 250
20 133 22 8 2 358 353 357 4 357 36 78 20 338 306 276 285 293 304 310 290 243 281 253 227 245 301 307 302 319 326 316 322 324 312 344 262 218 232 247 210 229 216 203 223 212 168 277 295 144 255 324 115 196 216 207 212 231 265 271 244 245 217 192 200 220 225 232 242 244 246 247 241 244 254 255 245 243 250 246 238 240 242 243 246 248 250 251
13 129 17 3 360 2 359 6 23 25 56 77 327 277 314 290 293 303 308 301 240 227 259 221 217 274 290 297 296 308 319 310 312 310 278 202 265 268 258 234 275 336 222 212 228 235 156 244 264 244 238 270 247 199 229 230 199 208 230 233 228 234 250 222 199 213 236 238 238 246 247 244 240 229 240 250 244 238 251 259 248 245 243 243 249 256 259 260
17 98 2 357 360 4 5 24 38 32 69 101 274 253 308 309 297 304 311 297 248 252 260 234 245 266 277 296 300 309 317 307 304 298 271 222 226 265 25 156 284 339 209 219 231 219 186 219 255 268 271 260 245 196 201 250 230 213 214 218 219 212 219 227 212 213 231 240 245 253 260 261 254 218 234 250 248 242 275 288 272 268 266 264 263 262 264 268
32 80 352 356 2 3 8 57 57 29 119 7 316 283 291 302 299 305 318 320 258 254 265 252 251 258 263 271 284 313 322 302 291 287 259 228 214 225 241 217 228 236 208 243 247 194 168 201 255 264 266 263 265 254 235 241 252 247 233 230 222 208 213 224 220 210 211 232 254 259 263 268 263 227 234 261 281 284 277 265 267 279 280 282 284 280 275 279
31 46 356 358 2 7 18 82 60 24 123 322 314 292 290 289 286 302 320 344 317 276 283 268 248 246 250 252 283 313 324 295 268 258 252 255 232 236 256 250 239 232 207 243 243 173 164 205 249 266 274 265 264 259 236 226 225 234 236 226 218 219 225 230 236 238 226 238 250 254 254 255 252 207 245 270 284 280 271 259 270 287 289 288 288 284 279 283
16 25 8 2 0 12 31 86 338 346 332 330 322 312 312 283 270 301 312 321 310 288 303 287 265 245 261 301 298 297 307 287 261 260 263 272 262 260 273 267 252 229 191 203 200 167 183 221 217 268 297 284 245 195 158 190 195 214 228 211 217 226 221 217 206 215 245 243 237 247 250 241 250 330 286 289 302 299 299 294 275 278 292 297 294 288 288 290
6 17 11 3 7 29 65 97 44 339 324 342 328 321 332 294 288 317 310 289 285 308 305 281 286 278 277 313 302 288 279 249 257 284 277 279 283 269 281 292 286 262 218 200 176 161 201 226 180 240 283 288 292 290 181 214 188 190 207 211 219 217 205 204 204 213 236 239 233 245 253 255 292 315 307 305 313 314 315 314 305 296 299 305 303 300 300 298
22 16 353 353 16 50 80 86 49 33 318 343 326 326 353 320 311 329 319 272 325 351 312 271 296 303 286 327 320 305 285 240 245 278 285 287 295 288 300 308 305 291 248 200 173 158 213 239 211 231 247 260 281 282 291 310 256 218 216 215 215 210 206 210 218 226 235 244 249 255 263 272 283 291 291 294 306 315 312 311 314 312 307 307 305 303 301 296
40 39 3 350 4 50 83 74 36 28 322 332 328 340 351 326 324 339 333 291 336 334 299 243 286 331 328 340 329 308 301 282 258 268 282 286 298 312 312 311 311 313 253 182 171 163 243 254 221 222 237 252 267 271 269 276 268 261 256 236 223 212 200 199 215 226 221 242 260 252 249 257 264 267 273 282 298 310 305 302 307 307 304 304 305 303 299 293
44 100 93 12 336 32 82 354 352 349 321 282 260 302 334 332 345 351 328 315 325 325 318 225 253 282 311 329 317 295 303 306 286 277 295 301 313 325 321 319 340 36 104 162 170 172 261 265 221 204 236 251 258 265 266 262 259 256 251 245 238 220 201 203 219 214 187 213 244 244 242 247 255 263 269 277 291 293 294 296 295 295 298 302 305 302 296 292
45 71 201 345 328 243 270 310 322 326 314 261 240 274 328 329 345 346 321 314 319 314 306 275 289 309 317 307 295 287 297 310 304 302 317 312 313 322 315 308 5 75 93 159 180 197 280 269 234 211 244 256 252 256 260 255 250 245 238 238 238 231 221 222 229 220 206 224 242 251 258 262 263 264 269 279 286 279 284 289 290 295 305 310 308 300 291 288
49 33 340 330 326 270 285 308 320 323 323 324 293 311 324 309 328 336 317 283 286 300 269 287 304 316 314 301 287 265 258 272 282 285 297 306 307 318 307 281 287 41 49 151 186 226 242 267 307 226 251 262 249 249 255 249 244 243 241 235 228 231 233 233 238 234 222 232 244 252 263 270 265 266 281 285 273 273 282 293 300 306 314 311 304 296 287 287
37 24 9 345 324 292 305 321 326 320 339 15 337 332 337 316 328 334 315 253 235 251 274 298 312 318 311 300 289 270 265 267 268 272 275 270 268 268 258 260 294 336 349 229 212 217 220 264 319 306 289 294 256 256 260 237 232 246 251 243 223 217 224 224 224 224 222 231 242 246 251 260 266 295 311 296 283 277 279 292 302 306 310 306 297 291 287 289
24 19 15 359 316 270 345 345 334 328 345 335 312 318 306 298 316 332 325 263 229 246 263 286 304 312 309 298 295 299 302 298 290 285 279 266 257 254 250 253 264 275 282 282 274 224 221 260 304 328 309 310 328 316 296 198 199 236 249 256 232 219 243 246 227 224 221 224 236 243 245 264 296 321 316 308 309 308 296 287 283 291 302 301 292 286 286 293